Back to catalog

FENGYUN 1C DEB

AliveSSO
NORAD 30313·DEBRIS·🇨🇳 China

Launched May 10, 1999 from Taiyuan Satellite Launch Center

Loading…

Next Passes (next 24 hours)

TLE

FreshSource: Space-Track

Epoch: Sep 14, 2026, 06:05 UTC

1 30313U 99025AAA 26257.25402716  .00002490  00000-0  10144-2 0  9991
2 30313  98.8698 352.0839 0055535 256.1626 128.4012 14.27545660 10145

Track FENGYUN 1C DEB in real time with AllMySat

Download on the App Store